Location: Vinland
(47.7731°N, 122.6974°W)
Time: 01:29:51
(UTC+00:00)

S-56A Canister/Altair - Pass Details

Date: 07 April 2023
Orbit: 639 x 2492 km, 38.9° (Epoch: 31 May)

Event Time Altitude Azimuth Distance (km) Brightness Sun altitude
Rises 05:28:09 0° 277° (W) 5,073 12.5 -24.5°
Reaches altitude 10° 05:31:49 10° 266° (W) 4,336 11.8 -25.0°
Maximum altitude 05:41:28 28° 214° (SW) 3,581 10.7 -26.1°
Enters shadow 05:47:15 22° 182° (S) 4,144 10.8 -26.7°
